FREGAT DEB, 46002

Orbit data source: Space-Track

FREGAT DEB, 46002 is space debris in LEO originally from a launch on Mon, 18 Jul 2011 UTC launched from the Tyuratam Missile And Space Complex (TTMTR). Debris objects in space refer to the collection of defunct objects orbiting the Earth. Examples of debris include non-operational satellites, rocket bodies, and fragments generated from explosions, collisions, or faulty payload assembly.

Loading next visibility...
Identifier
46002, 2011-037HD
Orbit
LEO
Country
Flag of CISCIS
Related business
Manufacturer
Lavochkin
Mission
Spacecraft
Bus & Motor
Unknown
Mass
Unknown
Launch date (UTC)
2011-07-18 (15 years ago)
Launch vehicle
Unknown
Launch site
Tyuratam Missile And Space Complex (TTMTR)
Object type
Payload
Rocket body
Debris
Shape & HBR
Unknown shape, 0.1 m
Radar Cross Section
Small (<0.1 m²)

Expand to show TLE details & history
Last TLE update: 8 hours ago

TLE from 8 hours ago
0 FREGAT DEB
1 46002U 11037HD  26124.56412102  .00031795  00000-0  37075-1 0  9998
2 46002  51.2946 316.4999 1470695  79.6768 296.6032 11.57147299223222
Epoch: 2026-05-04T13:32Z
TLE epoch observation values (Epoch: 2026-05-04T13:32:20.056Z)
Latitude
0.00007°
Longitude
-109.03512°
Altitude
1,491.514 km
Speed
7.284 km/s
True Right ascension
21h 05m 59s
True Declination
0° 00' 00"
Sunlit
Object was in daylight at epoch
Visualization orbit readout
Latitude
Unknown
Longitude
Unknown
Altitude
Unknown
Speed
Unknown
Apparent Right ascension
Unknown
Apparent Declination
Unknown
Sunlit
N/A
Visualization observer readout
Local Sidereal Time
05:45:57
Azimuth
Unknown
Elevation
Unknown
Doppler factor
Unknown
Orbital elements
Apogee altitude
3,093.488 km
Perigee altitude
664.713 km
Semi-major axis
8,257.237 km
Eccentricity
0.14707
Inclination
51.2946°
RAAN
316.4999°
Arg. of periapsis
79.6768°
True anomaly
280.40851°
Mean anomaly
296.6032°
Eccentric anomaly
288.6177°
Mean motion
2.89262 °/min
Orbital period
124.45 mins
BSTAR
0.037075
Loading maneuver chart data...
Computing Atmospheric mass density...
Loading historical data...
Loading historical data...
Loading historical data...
Loading historical data...
Loading historical data...
Loading historical data...
Loading historical data...

Documentation

Showing up to 5 results
|